Lexington Weather

Lexington, Massachusetts, USA

73°F
8/7/2020 11:23am 
  • Lexington Conditions: Clear
  • Temperature: 72.7°F / 22.6°CWarmer 2.5°F than last hour.
  • Dew Point: 63.5°FIncreased 0.9°Fsince last hour.
  • Relative Humidity: 73%Decreased 4.0% since last hour.
  • Wind: Calm, 10-min avg: Calm, gust: None
  • Barometer: 30.14 in Steady
  • Visibility: 10 miles
  • Rain Today: 0.00 in
  •   

Regional Weather Roundup
for Boston / Norton, MA

        
000
ASUS41 KBOX 021104
RWRBOX

REGIONAL WEATHER ROUNDUP
NATIONAL WEATHER SERVICE BOSTON/NORTON MA
700 AM EDT SUN AUG 02 2020

NOTE:  "FAIR" INDICATES FEW OR NO CLOUDS BELOW 12,000 FEET WITH NO 
SIGNIFICANT WEATHER AND/OR OBSTRUCTIONS TO VISIBILITY.

MAZALL-021200-
EASTERN MASSACHUSETTS
  
CITY           SKY/WX    TMP DP  RH WIND       PRES   REMARKS
BOSTON         PTSUNNY   72  69  90 S6        30.00R                  
BEVERLY        MOSUNNY   73  69  87 S3        29.99R                  
LAWRENCE       MOSUNNY   73  68  84 S5        30.01R                  
BEDFORD        CLOUDY    73  68  84 CALM      29.98S                  
BLUE HILL      NOT AVBL                                               
NORWOOD        MOSUNNY   74  70  87 S8        30.00R                  
MARSHFIELD     PTSUNNY   75  73  94 SW5       30.00R                  
PLYMOUTH       SUNNY     72  70  93 SW5       30.01R                  
TAUNTON        SUNNY     72  69  90 SE3       30.00S                  
NEW BEDFORD    SUNNY     72  71  97 CALM      30.00S                  
$$

MAZALL-021200-
CAPE COD AND THE ISLANDS
  
CITY           SKY/WX    TMP DP  RH WIND       PRES   REMARKS
FALMOUTH       SUNNY     70  72 100 SW6       30.02R                  
HYANNIS        SUNNY     76  71  85 S5        30.01R                  
CHATHAM        SUNNY     75  71  87 S5        30.03R                  
PROVINCETOWN   SUNNY     74  72  93 SW7       30.02R                  
NANTUCKET      SUNNY     70  68  93 S6        30.03R                  
MARTHAS VNYRD  SUNNY     69  66  90 SE3       30.02R                  
$$
 
MAZALL-021200-
CENTRAL AND WESTERN MASSACHUSETTS
  
CITY           SKY/WX    TMP DP  RH WIND       PRES   REMARKS
WORCESTER      CLOUDY    71  67  87 SW6       30.02R                  
FITCHBURG      CLOUDY    71  64  78 CALM      30.00R                  
ORANGE         CLOUDY    68  65  90 CALM      30.00S                  
SPRINGFIELD    CLOUDY    74  68  83 S5        29.97S                  
WESTFIELD      CLOUDY    72  65  78 S3        29.98R                  
NORTH ADAMS    CLOUDY    70  62  76 E9        29.97R                  
PITTSFIELD     CLOUDY    72  62  71 SE6       29.98S                  
$$
 
RIZALL-021200-
RHODE ISLAND
  
CITY           SKY/WX    TMP DP  RH WIND       PRES   REMARKS
PROVIDENCE     PTSUNNY   73  71  93 S6        30.01S                  
NEWPORT        PTSUNNY   75  72  90 S3        30.01S                  
BLOCK ISLAND   CLOUDY    74  71  91 S8        30.01S                  
SMITHFIELD     PTSUNNY   71  71 100 CALM      30.02S                  
WESTERLY       CLOUDY    73  69  87 CALM      30.00S                  
$$
 
CTZALL-021200-
CONNECTICUT
  
CITY           SKY/WX    TMP DP  RH WIND       PRES   REMARKS
BRADLEY INTL   CLOUDY    74  69  85 S7        29.97S                  
HARTFORD       CLOUDY    75  70  84 S7        29.97S                  
BRIDGEPORT     PTSUNNY   76  71  85 SE7       29.97S                  
DANBURY        CLOUDY    74  71  91 SE3       29.99S                  
GROTON         PTSUNNY   73  70  90 SE5       29.99S                  
NEW HAVEN      PTSUNNY   78  73  84 SE9       29.97S                  
CHESTER        NOT AVBL                                               
MERIDEN        CLOUDY    74  69  85 CALM      29.98S                  
WILLIMANTIC    CLOUDY    71  69  93 CALM      30.00S                  
OXFORD         PTSUNNY   72  71  97 SE7       30.01R                  
$$

MEZ002-015-021-024-NHZ003-005-008-011-012-014-VTZ005-008-021200-
NORTHERN NEW ENGLAND
  
CITY           SKY/WX    TMP DP  RH WIND       PRES   REMARKS
PORTLAND ME    MOSUNNY   72  64  76 CALM      29.99R                  
BANGOR ME      PTSUNNY   68  63  84 S5        29.99S                  
CONCORD NH     PTSUNNY   68  63  84 CALM      29.99R                  
MANCHESTER NH  PTSUNNY   71  65  81 CALM      29.97S                  
NASHUA NH      CLOUDY    69  68  96 CALM      29.99S                  
PORTSMOUTH NH  PTSUNNY   70  66  89 CALM      29.97S                  
JAFFREY NH     CLOUDY    67  64  90 CALM      30.02R                  
KEENE NH       CLOUDY    66  65  96 CALM      29.99S                  
BURLINGTON VT  CLOUDY    73  61  65 SE3       29.91S                  
MT. WASHINGTON NOT AVBL                                               
$$

NYZ052-076-021200-
EASTERN NEW YORK
  
CITY           SKY/WX    TMP DP  RH WIND       PRES   REMARKS
ALBANY         CLOUDY    73  62  68 S7        29.93R                  
NEW YORK CITY  PTSUNNY   77  71  82 S9        29.94S                  
$$
 
ANZALL-021200-
MARINE OBSERVATIONS
  
STATION/POSITION TIME  TEMP    WIND        PRES    VSBY  WAVE
                       AIR SEA DIR/SP/G                  HT/PER
                 (UTC) (F)     (DEG/KT/KT) (MB)    (MI)  (FT/S)
BOSTON BUOY      1050   71 72  150/  6/  8 1014.6R         1/11
BUZZARDS BAY     1000          170/  8/  9 1017.2R
NANTUCKET SOUND  1050      76  190/  8/ 10   N/A           1
MASS BAY-STELLWA 1004   72     240/ 10/ 10 1013.5R  1 3/4  2/ 8
ISLE OF SHOALS   1000   70     210/  8/  8 1014.8R
S OF BLOCK IS    1026      72                N/A           4/11
$$

......................KEY.........................
  SKY/WX - SKY CONDITION/PRESENT WEATHER
  TMP    - TEMPERATURE IN FAHRENHEIT
  DWPT   - DEWPOINT IN FAHRENHEIT
  RH     - RELATIVE HUMIDITY IN PERCENT
  WIND   - DIRECTION AND SPEED IN MPH
  PRES   - MEAN SEA LEVEL PRESSURE IN INCHES OF HG
  WCI    - WIND CHILL INDEX
  VSB    - VISIBILITY IN MILES
  HX     - HEAT INDEX
  TC     - TEMPERATURE IN CELSIUS
  VRB    - VARIABLE WIND DIRECTION
  N/A    - NOT AVAILABLE
  
      

Other recent Regional Weather Roundups

Fri Aug 7, 11:04am

Fri Aug 7, 10:04am

Fri Aug 7, 9:04am

Fri Aug 7, 8:04am

Fri Aug 7, 7:04am

Fri Aug 7, 6:04am

Fri Aug 7, 5:04am

Fri Aug 7, 4:04am

Fri Aug 7, 3:04am

Fri Aug 7, 2:04am

Fri Aug 7, 1:05am

Fri Aug 7, 12:04am

Thu Aug 6, 11:04pm

Thu Aug 6, 10:04pm

Thu Aug 6, 9:04pm

Thu Aug 6, 8:04pm

Thu Aug 6, 7:04pm

Thu Aug 6, 6:04pm

Thu Aug 6, 5:04pm

Thu Aug 6, 4:05pm

Thu Aug 6, 3:04pm

Thu Aug 6, 2:05pm

Thu Aug 6, 1:04pm

Thu Aug 6, 12:04pm

Thu Aug 6, 11:04am

Thu Aug 6, 10:04am

Thu Aug 6, 9:04am

Thu Aug 6, 8:04am

Thu Aug 6, 7:04am

Thu Aug 6, 6:04am

Thu Aug 6, 5:04am

Thu Aug 6, 4:04am

Thu Aug 6, 3:04am

Thu Aug 6, 2:05am

Thu Aug 6, 1:04am

Thu Aug 6, 12:04am

Wed Aug 5, 11:04pm

Wed Aug 5, 10:04pm

Wed Aug 5, 9:04pm

Wed Aug 5, 8:05pm

Wed Aug 5, 7:04pm

Wed Aug 5, 6:04pm

Wed Aug 5, 5:04pm

Wed Aug 5, 4:05pm

Wed Aug 5, 3:04pm

Wed Aug 5, 2:04pm

Wed Aug 5, 1:04pm

Wed Aug 5, 12:04pm

Wed Aug 5, 11:04am

Wed Aug 5, 10:04am

Wed Aug 5, 9:04am

Wed Aug 5, 8:04am

Wed Aug 5, 7:04am

Wed Aug 5, 6:04am

Wed Aug 5, 5:04am

Wed Aug 5, 4:04am

Wed Aug 5, 3:04am

Wed Aug 5, 2:05am

Wed Aug 5, 1:04am

Wed Aug 5, 12:05am

Tue Aug 4, 11:05pm

Tue Aug 4, 10:05pm

Tue Aug 4, 9:04pm

Tue Aug 4, 8:04pm

Tue Aug 4, 7:05pm

Tue Aug 4, 6:05pm

Tue Aug 4, 5:05pm

Tue Aug 4, 4:05pm

Tue Aug 4, 3:04pm

Tue Aug 4, 2:05pm

Tue Aug 4, 1:04pm

Tue Aug 4, 12:05pm

Tue Aug 4, 11:04am

Tue Aug 4, 10:04am

Tue Aug 4, 9:04am

Tue Aug 4, 8:04am

Tue Aug 4, 7:04am

Tue Aug 4, 6:04am

Tue Aug 4, 5:04am

Tue Aug 4, 4:04am

Tue Aug 4, 3:04am

Tue Aug 4, 2:04am

Tue Aug 4, 1:04am

Tue Aug 4, 12:04am

Mon Aug 3, 11:04pm

Mon Aug 3, 10:04pm

Mon Aug 3, 9:04pm

Mon Aug 3, 8:05pm

Mon Aug 3, 7:04pm

Mon Aug 3, 6:04pm

Mon Aug 3, 5:04pm

Mon Aug 3, 4:05pm

Mon Aug 3, 3:04pm

Mon Aug 3, 2:04pm

Mon Aug 3, 1:04pm

Mon Aug 3, 12:05pm

Mon Aug 3, 11:04am

Mon Aug 3, 10:04am

Mon Aug 3, 9:05am

Mon Aug 3, 8:04am

Mon Aug 3, 7:04am

Mon Aug 3, 6:04am

Mon Aug 3, 5:04am

Mon Aug 3, 4:04am

Mon Aug 3, 3:04am

Mon Aug 3, 2:04am

Mon Aug 3, 1:04am

Mon Aug 3, 12:05am

Sun Aug 2, 11:04pm

Sun Aug 2, 10:04pm

Sun Aug 2, 9:04pm

Sun Aug 2, 8:04pm

Sun Aug 2, 7:04pm

Sun Aug 2, 6:04pm

Sun Aug 2, 5:04pm

Sun Aug 2, 4:05pm

Sun Aug 2, 3:04pm

Sun Aug 2, 2:05pm

Sun Aug 2, 1:04pm

Sun Aug 2, 12:04pm

Sun Aug 2, 11:04am

Sun Aug 2, 10:04am

Sun Aug 2, 9:05am

Sun Aug 2, 8:05am

Sun Aug 2, 6:04am

Sun Aug 2, 5:04am

Sun Aug 2, 4:05am

Sun Aug 2, 3:04am

Sun Aug 2, 2:04am

Sun Aug 2, 1:04am

Sun Aug 2, 12:05am

Sat Aug 1, 11:04pm

Sat Aug 1, 10:04pm

Sat Aug 1, 9:04pm

Sat Aug 1, 8:05pm

Sat Aug 1, 7:04pm

Sat Aug 1, 6:04pm

Sat Aug 1, 5:05pm

Sat Aug 1, 4:05pm

Sat Aug 1, 3:04pm

Sat Aug 1, 2:04pm

Sat Aug 1, 1:04pm

Sat Aug 1, 12:04pm

Sat Aug 1, 11:05am

Sat Aug 1, 10:05am

Sat Aug 1, 9:04am

Sat Aug 1, 8:04am

Sat Aug 1, 7:04am

Sat Aug 1, 6:04am

Sat Aug 1, 5:04am

Sat Aug 1, 4:05am

Sat Aug 1, 3:04am

Sat Aug 1, 2:04am

Sat Aug 1, 1:04am

Sat Aug 1, 12:05am

Fri Jul 31, 11:05pm

Fri Jul 31, 10:04pm

Fri Jul 31, 9:04pm

Fri Jul 31, 8:05pm

Fri Jul 31, 7:05pm

Fri Jul 31, 6:04pm

Fri Jul 31, 5:04pm

Fri Jul 31, 4:05pm

Fri Jul 31, 3:04pm

Fri Jul 31, 2:05pm

Fri Jul 31, 1:04pm

Fri Jul 31, 12:04pm

Meta data:

ID: 1022459c-27c7-4fbd-b057-909e2ccef6e5
Link: https://api.weather.gov/products/1022459c-27c7-4fbd-b057-909e2ccef6e5